Location: Lafaure
(44.5000°N, 6.2333°E)
Time: 16:18:31
(UTC+00:00)

Daily predictions for brighter satellites

Satellite Brightness Start Highest point End
(mag) Time Altitude Azimuth Time Altitude Azimuth Time Altitude Azimuth
Cosmos 1802 Rocket 4.5 17:29:17 10° NNW 17:35:40 71° W 17:42:03 10° S
CZ-4 R/B 4.3 17:32:08 10° SSE 17:36:04 68° ENE 17:40:02 10° N
USA 290 4.1 17:33:46 10° SW 17:36:39 31° WNW 17:39:33 10° N
Cosmos 2285 Rocket 4.2 17:31:47 10° NNW 17:38:06 53° ENE 17:44:18 10° SE
Cosmos 2233 Rocket 4.0 17:32:18 10° N 17:38:37 78° E 17:44:55 10° SSE
NOSS 0 Rocket 3.9 17:34:22 10° NNW 17:40:40 77° ENE 17:46:53 10° SSE
USA 306 2.1 17:39:05 10° WNW 17:41:51 50° SW 17:43:39 10° SE
Atlas Centaur 2 4.3 17:37:52 10° SW 17:44:17 27° S 17:50:07 10° SE
NOSS 3-4 (A) 4.2 17:39:58 10° NNW 17:46:20 45° NE 17:53:45 10° ESE
NOSS 3-4 (C) 4.2 17:40:14 10° NNW 17:46:38 44° NE 17:54:02 10° ESE
Cosmos 2151 Rocket 4.0 17:46:30 10° NNW 17:50:59 71° W 17:55:26 10° S
Radarsat Rocket 4.0 17:47:58 10° SE 17:53:42 61° ENE 17:59:53 10° N
Helios 1A Rocket 4.1 17:58:04 15° ESE 17:58:04 15° ESE 17:59:42 10° SE
Cosmos 44 Rocket 3.6 17:53:28 10° S 17:58:06 46° ESE 18:02:56 10° NE
YAOGAN 1 2.4 17:53:54 10° SSE 17:58:08 80° ENE 18:02:25 10° N
Cosmos 1975 Rocket 3.9 17:54:50 10° SSE 17:58:29 27° E 18:02:07 10° NNE
Cosmos 1455 Rocket 3.3 17:54:32 10° N 17:58:39 43° ENE 18:02:45 10° SSE
PSLV R/B 3.6 17:55:01 10° SSE 17:58:58 49° ENE 18:02:56 10° N
Cosmos 2297 Rocket 2.2 17:55:07 10° SSW 18:00:46 77° ESE 18:06:27 10° NNE
Cosmos 2228 3.9 17:57:57 10° NNE 18:01:30 26° ENE 18:05:03 10° SE
COSMO-SKYMED 1 2.4 17:57:44 10° NNE 18:01:51 67° ESE 18:05:55 10° S
Cosmos 1782 4.0 18:00:46 10° NNE 18:03:12 18° ENE 18:03:12 18° ENE
Lacrosse 5 rocket 3.4 18:01:25 10° NW 18:03:28 15° NNW 18:05:35 10° NNE
SPOT 1/Viking Rocket 4.3 18:00:06 10° S 18:05:07 56° W 18:10:10 10° NNW
CZ-2D R/B 3.3 18:04:06 10° SSE 18:08:00 87° ENE 18:12:00 10° NNW
Cosmos 2061 Rocket 4.3 18:02:39 10° NNW 18:09:01 73° W 18:15:16 10° S
Aureole 3 Rocket 2.3 18:05:15 10° N 18:09:02 79° E 18:12:09 10° SSE
CZ-4C R/B 3.2 18:08:43 10° WSW 18:12:41 35° NW 18:17:41 10° NNE
Okean 1 Rocket 3.6 18:09:38 10° NNW 18:13:59 61° W 18:18:15 10° S
Cosmos 2344 4.0 18:10:51 10° S 18:18:18 39° ESE 18:23:43 15° NE
Meteor 2-17 Rocket 4.4 18:12:28 10° S 18:18:22 57° E 18:24:17 10° NNE
Cosmos 1464 Rocket 4.2 18:12:27 10° N 18:18:36 48° ENE 18:24:38 10° SSE
Cosmos 2221 Rocket 4.3 18:14:21 10° SSW 18:18:44 57° W 18:23:12 10° N
Cosmos 1602 3.2 18:16:33 10° SSE 18:19:09 38° E 18:19:20 38° E
Okean 2 Rocket 4.2 18:15:00 10° NNW 18:19:12 46° W 18:23:21 10° SSW
USA 267 4.1 18:15:18 10° NE 18:21:23 42° NNW 18:27:27 10° W
SJ-6B 2.8 18:20:20 15° SE 18:22:54 40° ENE 18:26:10 10° N
Cosmos 2263 Rocket 2.8 18:24:12 10° SSE 18:29:13 33° ESE 18:31:44 23° ENE
Cosmos 1980 3.9 18:26:10 10° NNW 18:31:49 72° WSW 18:37:25 10° SSE
Cosmos 2237 Rocket 2.5 18:31:26 10° NNW 18:37:07 71° WSW 18:42:45 10° SSE
Meteor 1-27 4.4 18:33:46 10° NNW 18:39:35 81° W 18:45:24 10° S
SeaSat 1 4.3 18:36:20 10° S 18:40:38 31° WSW 18:44:58 10° NW
Cosmos 1570 Rocket 4.5 18:36:52 10° SSW 18:42:06 62° WNW 18:47:20 10° NNE
Resurs 01 Rocket 1.7 18:37:47 10° S 18:42:10 78° WSW 18:46:36 10° NNW
SPOT 5 3.3 18:45:52 39° E 18:46:31 41° ENE 18:51:14 10° N
Tiangong -1.1 18:53:12 10° WSW 18:55:41 39° SSW 18:55:41 39° SSW
Cosmos 2227 Rocket 2.2 18:54:25 10° SSW 19:00:04 85° WNW 19:05:16 13° NNE
Cosmos 783 Rocket 4.4 18:55:23 10° S 19:00:35 67° ESE 19:03:04 31° NE
Cosmos 1346 Rocket 2.6 18:59:22 10° SSW 19:02:49 77° WSW 19:02:49 77° WSW
SL-16 R/B 2.2 18:57:29 10° NNW 19:03:04 56° ENE 19:03:59 50° E
Tsikada Rocket 4.0 19:00:42 10° SSE 19:06:34 50° E 19:12:29 10° NNE
CZ-4 R/B 3.8 19:17:57 12° N 19:17:57 12° N 19:18:16 10° N
ARIANE 6 FM1 Upper Stage 4.3 19:19:11 10° NNW 19:21:05 25° NNW 19:21:05 25° NNW
CZ-4B R/B 4.2 19:26:09 31° NNE 19:26:09 31° NNE 19:29:05 10° N
Gbstr 26 Del rocket 4.2 19:17:48 10° SW 19:24:39 76° SE 19:26:27 55° ENE
Terra 4.0 19:30:49 14° N 19:30:49 14° N 19:31:32 10° N
CZ-4B DEB 4.1 19:29:06 72° NE 19:29:06 72° NE 19:34:11 10° N
Cosmos 1544 Rocket 4.4 19:26:57 10° NNW 19:30:03 44° NNW 19:30:03 44° NNW
CSL-04 Debris 4.1 19:30:41 65° S 19:31:31 85° WSW 19:36:59 10° NNW
Atlas Centaur 2 4.2 19:26:41 10° WSW 19:31:58 21° SSW 19:33:52 19° S
BREEZE-M (TANK) 4.1 19:30:29 10° WNW 19:33:59 50° SSW 19:36:14 37° SSE
CSL-04 Rocket 3.7 19:35:10 56° SSW 19:36:12 72° WSW 19:41:29 10° NNW
Cosmos 2034 Rocket 4.2 19:30:15 10° NNW 19:36:23 69° W 19:42:32 10° S
Cosmos 1634 Rocket 4.0 19:37:31 10° N 19:43:02 67° NNE 19:43:02 67° NNE
Cosmos 2297 Rocket 4.5 19:41:19 10° W 19:45:27 20° NW 19:49:36 10° N
Cosmos 1943 4.4 19:45:26 10° NNW 19:48:32 31° N 19:48:32 31° N
BREEZE-M DEB (TANK) 3.7 19:40:03 10° W 19:56:17 80° N 19:56:30 78° NNE
Cosmos 2219 4.3 19:54:01 10° SSW 19:57:13 35° SW 19:57:13 35° SW
BREEZE-M DEB (TANK) 4.1 19:57:52 10° WSW 20:02:37 87° NNW 20:04:47 59° ENE
USA 267 4.5 20:02:28 29° NNE 20:03:25 30° N 20:08:54 10° WNW
Cosmos 2263 Rocket 3.3 20:07:40 10° SW 20:13:00 40° WNW 20:13:31 39° NW
Cosmos 2344 4.2 20:25:08 10° WSW 20:32:28 47° NW 20:33:48 42° NNW
SL-16 R/B 4.3 20:42:23 10° NW 20:45:53 22° W 20:45:53 22° W
